QPF
0.00 0.00 0.00 0.00 0.00 0.01 0.01 0.00 0.00 0.00 0.00 0.00 0.00 0.00 0.00 0.00 0.00 0.00 0.00 0.00 0.00 0.00 0.00 0.01 0.00 0.01 0.01 0.01 0.00 0.00 0.00 0.00 0.00 0.00 0.00 0.00 0.01 0.01 0.01 0.01 0.00 0.00 0.01
0.00 0.00 0.00 0.00 0.00 0.01 0.01 0.00 0.00 0.00 0.00 0.00 0.00 0.00 0.00 0.00 0.00 0.00 0.00 0.00 0.00 0.00 0.01 0.00 0.00 0.00 0.00 0.00 0.00 0.00 0.00 0.00 0.00 0.01 0.01 0.01 0.01 0.01 0.01 0.01 0.01 0.01 0.01
0.00 0.00 0.00 0.00 0.00 0.01 0.01 0.00 0.00 0.00 0.00 0.00 0.00 0.00 0.00 0.00 0.00 0.00 0.00 0.00 0.01 0.01 0.01 0.00 0.00 0.00 0.00 0.00 0.00 0.00 0.00 0.01 0.01 0.01 0.02 0.02 0.01 0.01 0.01 0.01 0.01 0.01 0.01
0.00 0.00 0.00 0.00 0.00 0.00 0.00 0.00 0.00 0.00 0.00 0.00 0.00 0.00 0.00 0.00 0.00 0.00 0.00 0.00 0.01 0.01 0.01 0.00 0.00 0.00 0.00 0.00 0.00 0.00 0.01 0.01 0.01 0.01 0.01 0.01 0.01 0.01 0.01 0.02 0.01 0.01 0.01
0.00 0.00 0.00 0.00 0.00 0.00 0.00 0.00 0.00 0.00 0.00 0.00 0.00 0.00 0.00 0.00 0.00 0.01 0.01 0.01 0.01 0.01 0.01 0.01 0.00 0.00 0.00 0.00 0.00 0.00 0.01 0.01 0.01 0.00 0.00 0.01 0.02 0.02 0.02 0.02 0.02 0.01 0.01
0.00 0.00 0.00 0.00 0.00 0.00 0.00 0.00 0.00 0.00 0.00 0.00 0.00 0.00 0.00 0.00 0.01 0.01 0.01 0.02 0.01 0.01 0.01 0.01 0.00 0.00 0.00 0.00 0.00 0.01 0.01 0.01 0.01 0.00 0.00 0.01 0.01 0.02 0.02 0.02 0.02 0.03 0.02
0.00 0.00 0.00 0.00 0.00 0.00 0.00 0.00 0.00 0.00 0.00 0.00 0.00 0.00 0.00 0.01 0.01 0.01 0.02 0.02 0.02 0.01 0.01 0.01 0.00 0.00 0.00 0.00 0.01 0.01 0.02 0.02 0.01 0.00 0.00 0.01 0.01 0.02 0.03 0.04 0.03 0.03 0.03
0.00 0.00 0.00 0.00 0.00 0.00 0.00 0.00 0.00 0.00 0.00 0.00 0.00 0.00 0.01 0.01 0.01 0.02 0.02 0.02 0.02 0.02 0.01 0.00 0.00 0.00 0.00 0.00 0.01 0.01 0.02 0.01 0.01 0.00 0.01 0.01 0.01 0.01 0.03 0.04 0.05 0.04 0.04
0.00 0.00 0.00 0.00 0.00 0.00 0.01 0.01 0.01 0.01 0.00 0.00 0.01 0.01 0.01 0.01 0.01 0.02 0.01 0.01 0.01 0.01 0.00 0.00 0.00 0.00 0.00 0.00 0.00 0.01 0.01 0.01 0.01 0.01 0.01 0.02 0.02 0.02 0.03 0.04 0.04 0.04 0.05
0.00 0.00 0.00 0.00 0.00 0.00 0.01 0.01 0.02 0.01 0.01 0.01 0.01 0.01 0.01 0.01 0.01 0.01 0.01 0.01 0.01 0.01 0.00 0.00 0.00 0.00 0.00 0.00 0.00 0.00 0.00 0.00 0.00 0.01 0.01 0.02 0.02 0.03 0.03 0.03 0.03 0.03 0.03
0.00 0.00 0.00 0.00 0.01 0.01 0.01 0.01 0.01 0.01 0.01 0.01 0.01 0.01 0.00 0.00 0.01 0.01 0.00 0.00 0.00 0.00 0.00 0.00 0.00 0.00 0.00 0.00 0.00 0.00 0.00 0.00 0.00 0.01 0.01 0.01 0.02 0.02 0.03 0.03 0.03 0.03 0.03
0.00 0.00 0.00 0.00 0.01 0.01 0.01 0.01 0.01 0.01 0.01 0.01 0.01 0.00 0.01 0.02 0.02 0.01 0.00 0.00 0.00 0.00 0.00 0.00 0.00 0.00 0.00 0.00 0.00 0.00 0.00 0.00 0.00 0.00 0.01 0.01 0.02 0.04 0.04 0.04 0.04 0.03 0.03
0.00 0.00 0.00 0.00 0.00 0.01 0.01 0.01 0.01 0.02 0.02 0.01 0.01 0.01 0.02 0.01 0.01 0.00 0.00 0.00 0.01 0.01 0.01 0.00 0.00 0.00 0.00 0.00 0.00 0.00 0.00 0.00 0.00 0.00 0.00 0.01 0.03 0.06 0.05 0.04 0.03 0.03 0.03
0.00 0.00 0.00 0.00 0.00 0.00 0.01 0.01 0.01 0.01 0.01 0.01 0.01 0.01 0.01 0.01 0.00 0.00 0.01 0.01 0.02 0.01 0.01 0.00 0.00 0.00 0.00 0.00 0.00 0.00 0.00 0.00 0.00 0.00 0.01 0.01 0.03 0.05 0.05 0.04 0.04 0.03 0.03
0.00 0.00 0.00 0.00 0.00 0.00 0.01 0.01 0.01 0.01 0.01 0.01 0.01 0.01 0.00 0.01 0.01 0.01 0.01 0.01 0.02 0.01 0.01 0.00 0.00 0.00 0.00 0.00 0.00 0.00 0.00 0.01 0.01 0.01 0.02 0.02 0.02 0.03 0.04 0.05 0.05 0.04 0.04
0.00 0.00 0.00 0.00 0.00 0.00 0.00 0.01 0.01 0.01 0.01 0.01 0.01 0.01 0.00 0.01 0.02 0.02 0.02 0.02 0.02 0.02 0.03 0.03 0.02 0.02 0.02 0.01 0.01 0.01 0.01 0.01 0.02 0.02 0.03 0.04 0.02 0.02 0.03 0.05 0.06 0.05 0.05
0.01 0.01 0.01 0.01 0.00 0.00 0.00 0.00 0.01 0.00 0.00 0.01 0.01 0.01 0.01 0.01 0.02 0.02 0.03 0.03 0.03 0.03 0.04 0.04 0.04 0.04 0.03 0.03 0.04 0.03 0.02 0.02 0.02 0.02 0.03 0.04 0.04 0.04 0.03 0.04 0.06 0.05 0.05
0.02 0.02 0.02 0.02 0.01 0.00 0.00 0.01 0.01 0.00 0.00 0.00 0.01 0.01 0.02 0.02 0.02 0.03 0.03 0.04 0.04 0.05 0.06 0.06 0.06 0.06 0.07 0.06 0.07 0.05 0.03 0.02 0.02 0.02 0.04 0.05 0.06 0.06 0.06 0.04 0.04 0.04 0.04
0.02 0.01 0.01 0.01 0.01 0.00 0.00 0.00 0.01 0.01 0.01 0.01 0.02 0.03 0.02 0.03 0.04 0.05 0.06 0.07 0.07 0.08 0.09 0.08 0.06 0.08 0.10 0.09 0.07 0.06 0.05 0.04 0.03 0.03 0.03 0.03 0.04 0.04 0.05 0.04 0.04 0.04 0.03
0.02 0.02 0.03 0.02 0.01 0.01 0.01 0.01 0.01 0.02 0.02 0.04 0.06 0.07 0.09 0.11 0.10 0.10 0.10 0.12 0.14 0.17 0.16 0.14 0.12 0.11 0.10 0.08 0.06 0.06 0.06 0.05 0.04 0.03 0.03 0.03 0.03 0.02 0.02 0.03 0.05 0.04 0.03
0.02 0.03 0.04 0.04 0.03 0.02 0.02 0.03 0.04 0.05 0.06 0.08 0.11 0.12 0.14 0.15 0.17 0.20 0.21 0.21 0.23 0.26 0.26 0.22 0.18 0.14 0.11 0.09 0.09 0.08 0.08 0.06 0.04 0.03 0.03 0.03 0.03 0.02 0.02 0.02 0.03 0.02 0.02
0.04 0.05 0.06 0.06 0.05 0.04 0.04 0.06 0.10 0.16 0.21 0.21 0.19 0.19 0.17 0.17 0.18 0.21 0.22 0.24 0.26 0.28 0.27 0.27 0.25 0.22 0.18 0.15 0.14 0.13 0.10 0.06 0.03 0.02 0.02 0.02 0.02 0.02 0.01 0.01 0.01 0.01 0.01
0.05 0.06 0.06 0.07 0.11 0.13 0.14 0.16 0.23 0.29 0.36 0.37 0.32 0.28 0.24 0.21 0.20 0.23 0.24 0.25 0.27 0.27 0.29 0.29 0.26 0.25 0.24 0.22 0.20 0.17 0.12 0.10 0.06 0.02 0.01 0.01 0.01 0.01 0.01 0.00 0.00 0.01 0.01
0.04 0.05 0.06 0.07 0.14 0.19 0.23 0.27 0.32 0.38 0.43 0.43 0.42 0.37 0.29 0.23 0.22 0.22 0.23 0.24 0.24 0.24 0.23 0.23 0.26 0.29 0.30 0.26 0.20 0.15 0.10 0.07 0.06 0.04 0.01 0.00 0.00 0.00 0.00 0.00 0.00 0.00 0.01
0.03 0.03 0.05 0.07 0.11 0.17 0.25 0.32 0.38 0.39 0.38 0.39 0.39 0.32 0.28 0.26 0.23 0.22 0.22 0.22 0.21 0.20 0.19 0.18 0.19 0.22 0.21 0.18 0.15 0.11 0.08 0.05 0.04 0.04 0.03 0.01 0.01 0.00 0.00 0.00 0.00 0.00 0.00
0.04 0.05 0.06 0.07 0.10 0.15 0.23 0.30 0.39 0.45 0.46 0.42 0.35 0.30 0.28 0.25 0.23 0.22 0.20 0.19 0.18 0.16 0.14 0.12 0.11 0.10 0.09 0.08 0.06 0.05 0.04 0.04 0.04 0.03 0.02 0.02 0.01 0.01 0.00 0.00 0.00 0.00 0.00
MSLP
1011.16 1011.39 1011.83 1012.40 1013.03 1013.61 1014.10 1014.44 1014.66 1014.80 1014.91 1015.07 1015.32 1015.67 1016.10 1016.56 1017.00 1017.37 1017.62 1017.75 1017.77 1017.74 1017.69 1017.68 1017.71 1017.81 1017.93 1018.06 1018.17 1018.23 1018.24 1018.21 1018.19 1018.19 1018.25 1018.38 1018.57 1018.79 1019.02 1019.22 1019.38 1019.50 1019.58
1011.06 1011.41 1011.92 1012.55 1013.19 1013.77 1014.22 1014.52 1014.71 1014.82 1014.94 1015.12 1015.41 1015.81 1016.28 1016.78 1017.24 1017.59 1017.82 1017.91 1017.91 1017.86 1017.82 1017.84 1017.92 1018.06 1018.24 1018.40 1018.51 1018.56 1018.54 1018.49 1018.44 1018.44 1018.50 1018.65 1018.87 1019.13 1019.38 1019.59 1019.75 1019.84 1019.89
1010.92 1011.38 1011.98 1012.66 1013.33 1013.91 1014.35 1014.65 1014.83 1014.95 1015.07 1015.28 1015.59 1016.01 1016.49 1016.98 1017.41 1017.73 1017.91 1017.97 1017.95 1017.91 1017.90 1017.97 1018.11 1018.31 1018.52 1018.70 1018.80 1018.82 1018.76 1018.67 1018.58 1018.56 1018.63 1018.80 1019.05 1019.34 1019.63 1019.86 1020.02 1020.11 1020.15
1010.80 1011.35 1012.03 1012.77 1013.47 1014.08 1014.53 1014.85 1015.04 1015.18 1015.33 1015.55 1015.87 1016.27 1016.73 1017.18 1017.55 1017.82 1017.96 1017.99 1017.97 1017.96 1018.00 1018.12 1018.32 1018.57 1018.81 1018.99 1019.07 1019.04 1018.93 1018.78 1018.65 1018.61 1018.68 1018.87 1019.16 1019.48 1019.80 1020.07 1020.25 1020.35 1020.39
1010.75 1011.37 1012.11 1012.90 1013.64 1014.27 1014.76 1015.10 1015.33 1015.50 1015.68 1015.91 1016.22 1016.60 1017.01 1017.40 1017.71 1017.92 1018.02 1018.05 1018.05 1018.07 1018.17 1018.35 1018.61 1018.89 1019.13 1019.29 1019.33 1019.24 1019.07 1018.87 1018.70 1018.64 1018.71 1018.92 1019.23 1019.60 1019.95 1020.25 1020.46 1020.58 1020.64
1010.80 1011.47 1012.24 1013.05 1013.81 1014.47 1015.00 1015.38 1015.66 1015.86 1016.07 1016.31 1016.60 1016.95 1017.31 1017.64 1017.90 1018.07 1018.15 1018.19 1018.21 1018.29 1018.44 1018.68 1018.96 1019.26 1019.49 1019.61 1019.59 1019.45 1019.21 1018.96 1018.76 1018.69 1018.77 1018.99 1019.33 1019.73 1020.12 1020.44 1020.68 1020.82 1020.90
1010.95 1011.63 1012.40 1013.21 1013.98 1014.65 1015.21 1015.63 1015.94 1016.19 1016.42 1016.67 1016.96 1017.28 1017.60 1017.89 1018.11 1018.26 1018.35 1018.40 1018.47 1018.59 1018.79 1019.06 1019.36 1019.64 1019.84 1019.91 1019.83 1019.62 1019.34 1019.05 1018.83 1018.76 1018.85 1019.10 1019.47 1019.89 1020.31 1020.65 1020.91 1021.07 1021.16
1011.16 1011.81 1012.55 1013.33 1014.08 1014.76 1015.33 1015.78 1016.13 1016.41 1016.67 1016.94 1017.22 1017.53 1017.83 1018.09 1018.31 1018.46 1018.56 1018.65 1018.76 1018.93 1019.15 1019.43 1019.71 1019.96 1020.11 1020.11 1019.98 1019.72 1019.40 1019.10 1018.89 1018.83 1018.95 1019.23 1019.62 1020.07 1020.50 1020.86 1021.12 1021.29 1021.38
1011.35 1011.95 1012.64 1013.37 1014.09 1014.74 1015.31 1015.78 1016.16 1016.47 1016.76 1017.04 1017.34 1017.64 1017.94 1018.21 1018.44 1018.61 1018.74 1018.87 1019.01 1019.19 1019.42 1019.68 1019.93 1020.12 1020.20 1020.15 1019.96 1019.67 1019.35 1019.05 1018.87 1018.85 1019.00 1019.32 1019.75 1020.22 1020.66 1021.03 1021.29 1021.45 1021.54
1011.47 1012.02 1012.64 1013.31 1013.98 1014.61 1015.16 1015.63 1016.02 1016.36 1016.67 1016.98 1017.29 1017.61 1017.92 1018.20 1018.45 1018.65 1018.82 1018.97 1019.13 1019.31 1019.52 1019.74 1019.93 1020.06 1020.07 1019.97 1019.75 1019.45 1019.14 1018.88 1018.74 1018.77 1018.97 1019.33 1019.79 1020.29 1020.74 1021.12 1021.38 1021.54 1021.62
1011.48 1011.98 1012.56 1013.17 1013.79 1014.38 1014.91 1015.37 1015.76 1016.11 1016.43 1016.76 1017.09 1017.42 1017.75 1018.06 1018.33 1018.56 1018.75 1018.92 1019.08 1019.25 1019.42 1019.59 1019.72 1019.77 1019.73 1019.59 1019.35 1019.06 1018.78 1018.57 1018.49 1018.58 1018.84 1019.24 1019.73 1020.24 1020.71 1021.10 1021.37 1021.53 1021.60
1011.38 1011.87 1012.42 1012.99 1013.57 1014.12 1014.61 1015.05 1015.43 1015.78 1016.11 1016.44 1016.79 1017.14 1017.49 1017.81 1018.10 1018.35 1018.55 1018.72 1018.87 1019.02 1019.15 1019.26 1019.32 1019.32 1019.24 1019.07 1018.84 1018.57 1018.33 1018.18 1018.16 1018.30 1018.61 1019.04 1019.56 1020.09 1020.57 1020.96 1021.24 1021.41 1021.50
1011.23 1011.73 1012.27 1012.82 1013.37 1013.88 1014.35 1014.76 1015.12 1015.46 1015.78 1016.11 1016.46 1016.82 1017.17 1017.51 1017.81 1018.06 1018.27 1018.43 1018.56 1018.68 1018.77 1018.83 1018.85 1018.81 1018.71 1018.53 1018.32 1018.09 1017.89 1017.79 1017.82 1018.01 1018.34 1018.79 1019.31 1019.84 1020.33 1020.73 1021.03 1021.22 1021.33
1011.05 1011.60 1012.16 1012.72 1013.25 1013.74 1014.17 1014.55 1014.89 1015.21 1015.52 1015.84 1016.18 1016.53 1016.88 1017.22 1017.51 1017.76 1017.96 1018.11 1018.23 1018.32 1018.38 1018.41 1018.41 1018.36 1018.25 1018.10 1017.91 1017.72 1017.57 1017.51 1017.57 1017.77 1018.11 1018.55 1019.06 1019.57 1020.05 1020.45 1020.75 1020.97 1021.11
1010.90 1011.51 1012.11 1012.69 1013.22 1013.70 1014.11 1014.47 1014.78 1015.07 1015.37 1015.67 1016.00 1016.33 1016.67 1016.99 1017.28 1017.52 1017.70 1017.84 1017.94 1018.01 1018.06 1018.09 1018.09 1018.06 1017.97 1017.85 1017.71 1017.56 1017.45 1017.42 1017.49 1017.68 1017.99 1018.40 1018.86 1019.33 1019.78 1020.16 1020.47 1020.70 1020.87
1010.79 1011.45 1012.10 1012.71 1013.25 1013.73 1014.13 1014.47 1014.77 1015.05 1015.33 1015.62 1015.92 1016.25 1016.57 1016.87 1017.14 1017.36 1017.53 1017.66 1017.75 1017.83 1017.89 1017.93 1017.96 1017.96 1017.92 1017.85 1017.76 1017.66 1017.58 1017.56 1017.62 1017.78 1018.04 1018.39 1018.78 1019.19 1019.59 1019.93 1020.22 1020.45 1020.63
1010.70 1011.41 1012.09 1012.72 1013.28 1013.76 1014.16 1014.50 1014.80 1015.08 1015.35 1015.64 1015.94 1016.25 1016.55 1016.84 1017.09 1017.29 1017.45 1017.57 1017.67 1017.76 1017.84 1017.92 1017.99 1018.04 1018.07 1018.06 1018.02 1017.97 1017.92 1017.91 1017.95 1018.08 1018.27 1018.54 1018.85 1019.19 1019.51 1019.80 1020.05 1020.25 1020.43
1010.61 1011.32 1012.01 1012.64 1013.21 1013.70 1014.12 1014.48 1014.79 1015.09 1015.38 1015.68 1015.99 1016.30 1016.60 1016.87 1017.10 1017.30 1017.44 1017.57 1017.67 1017.77 1017.88 1018.00 1018.12 1018.24 1018.33 1018.39 1018.42 1018.42 1018.40 1018.40 1018.43 1018.51 1018.65 1018.84 1019.07 1019.32 1019.56 1019.79 1019.98 1020.15 1020.30
1010.49 1011.16 1011.81 1012.43 1012.99 1013.49 1013.94 1014.33 1014.68 1015.02 1015.35 1015.69 1016.02 1016.35 1016.66 1016.93 1017.16 1017.34 1017.48 1017.60 1017.70 1017.82 1017.96 1018.11 1018.29 1018.46 1018.62 1018.75 1018.84 1018.89 1018.92 1018.94 1018.97 1019.03 1019.12 1019.25 1019.40 1019.57 1019.74 1019.90 1020.03 1020.15 1020.26
1010.35 1010.92 1011.51 1012.08 1012.63 1013.13 1013.60 1014.03 1014.44 1014.84 1015.24 1015.63 1016.01 1016.37 1016.70 1016.98 1017.21 1017.39 1017.53 1017.64 1017.75 1017.88 1018.03 1018.21 1018.43 1018.65 1018.86 1019.05 1019.20 1019.32 1019.39 1019.44 1019.49 1019.54 1019.61 1019.70 1019.80 1019.91 1020.02 1020.11 1020.19 1020.26 1020.33
1010.24 1010.68 1011.16 1011.66 1012.16 1012.66 1013.15 1013.63 1014.11 1014.58 1015.05 1015.51 1015.95 1016.36 1016.73 1017.03 1017.28 1017.46 1017.59 1017.70 1017.81 1017.93 1018.09 1018.29 1018.52 1018.77 1019.02 1019.26 1019.46 1019.63 1019.75 1019.85 1019.92 1019.99 1020.06 1020.13 1020.21 1020.28 1020.35 1020.40 1020.44 1020.47 1020.50
1010.26 1010.53 1010.87 1011.28 1011.73 1012.20 1012.71 1013.23 1013.76 1014.31 1014.86 1015.39 1015.90 1016.37 1016.78 1017.12 1017.39 1017.58 1017.72 1017.82 1017.92 1018.03 1018.18 1018.37 1018.60 1018.85 1019.13 1019.39 1019.63 1019.83 1020.00 1020.13 1020.24 1020.33 1020.42 1020.49 1020.56 1020.62 1020.67 1020.70 1020.71 1020.73 1020.74
1010.50 1010.60 1010.80 1011.10 1011.47 1011.92 1012.41 1012.96 1013.54 1014.15 1014.76 1015.37 1015.94 1016.47 1016.93 1017.30 1017.59 1017.80 1017.95 1018.05 1018.13 1018.23 1018.36 1018.52 1018.73 1018.97 1019.23 1019.49 1019.74 1019.97 1020.16 1020.32 1020.46 1020.57 1020.67 1020.76 1020.83 1020.89 1020.93 1020.95 1020.96 1020.97 1020.98
1011.06 1011.01 1011.08 1011.26 1011.56 1011.95 1012.43 1012.98 1013.58 1014.22 1014.88 1015.54 1016.16 1016.73 1017.23 1017.64 1017.96 1018.19 1018.35 1018.45 1018.53 1018.60 1018.70 1018.83 1019.00 1019.20 1019.43 1019.66 1019.89 1020.10 1020.30 1020.46 1020.60 1020.73 1020.83 1020.91 1020.98 1021.04 1021.07 1021.10 1021.12 1021.14 1021.17
1011.98 1011.81 1011.77 1011.87 1012.08 1012.42 1012.86 1013.38 1013.98 1014.63 1015.30 1015.97 1016.62 1017.22 1017.75 1018.19 1018.53 1018.79 1018.96 1019.07 1019.14 1019.20 1019.26 1019.35 1019.46 1019.60 1019.77 1019.95 1020.13 1020.30 1020.46 1020.60 1020.72 1020.82 1020.90 1020.97 1021.02 1021.06 1021.09 1021.11 1021.14 1021.18 1021.23
1013.23 1013.00 1012.89 1012.91 1013.07 1013.34 1013.73 1014.21 1014.77 1015.39 1016.04 1016.70 1017.35 1017.95 1018.49 1018.94 1019.31 1019.59 1019.77 1019.89 1019.96 1020.00 1020.03 1020.07 1020.12 1020.20 1020.28 1020.38 1020.48 1020.59 1020.68 1020.76 1020.82 1020.88 1020.91 1020.94 1020.96 1020.97 1020.97 1020.99 1021.01 1021.06 1021.13
Thickness
5816 5810 5796 5792 5789 5787 5785 5783 5781 5778 5775 5772 5770 5767 5765 5763 5761 5760 5759 5758 5757 5757 5756 5755 5754 5753 5752 5752 5751 5750 5749 5748 5747 5746 5745 5744 5743 5742 5741 5740 5741 5740 5735
5818 5807 5793 5789 5786 5784 5783 5780 5778 5775 5772 5769 5767 5764 5762 5760 5758 5757 5755 5755 5754 5753 5752 5751 5750 5749 5748 5747 5747 5746 5745 5744 5743 5742 5742 5740 5739 5738 5737 5737 5738 5737 5732
5813 5803 5792 5786 5783 5781 5780 5778 5775 5772 5769 5766 5764 5761 5759 5757 5755 5754 5752 5751 5750 5749 5748 5747 5746 5745 5744 5743 5742 5742 5741 5740 5739 5739 5740 5741 5737 5734 5733 5732 5731 5730 5728
5808 5799 5792 5783 5781 5778 5776 5774 5772 5769 5766 5763 5761 5758 5756 5754 5752 5751 5749 5748 5747 5746 5745 5744 5743 5742 5741 5740 5739 5738 5737 5736 5736 5737 5741 5740 5736 5730 5728 5727 5726 5725 5724
5802 5796 5788 5781 5777 5775 5773 5771 5769 5766 5763 5761 5758 5756 5753 5751 5749 5748 5747 5745 5744 5743 5742 5741 5739 5738 5737 5736 5735 5734 5733 5733 5733 5736 5739 5737 5733 5726 5725 5723 5722 5721 5720
5799 5793 5784 5778 5774 5772 5769 5768 5766 5763 5760 5758 5755 5753 5750 5748 5746 5745 5744 5743 5741 5740 5739 5738 5736 5735 5734 5733 5732 5731 5730 5730 5732 5738 5736 5734 5730 5723 5721 5720 5718 5717 5716
5797 5791 5782 5774 5771 5768 5766 5764 5762 5760 5758 5755 5753 5750 5748 5745 5744 5743 5741 5740 5739 5738 5737 5735 5734 5732 5731 5730 5729 5728 5727 5728 5733 5735 5733 5732 5727 5720 5718 5716 5715 5713 5712
5796 5790 5779 5771 5768 5765 5763 5761 5759 5757 5755 5752 5750 5748 5746 5743 5742 5740 5739 5738 5737 5736 5735 5733 5731 5730 5729 5728 5727 5726 5726 5726 5730 5732 5730 5728 5722 5717 5715 5714 5712 5710 5709
5796 5789 5779 5772 5766 5762 5760 5758 5756 5754 5752 5750 5747 5745 5743 5741 5740 5738 5737 5736 5735 5734 5732 5731 5729 5728 5727 5726 5725 5724 5723 5724 5729 5730 5728 5725 5719 5715 5713 5711 5709 5708 5706
5794 5789 5782 5775 5769 5763 5759 5755 5753 5751 5749 5747 5745 5743 5741 5739 5737 5736 5736 5734 5733 5732 5731 5729 5728 5726 5725 5724 5723 5722 5721 5723 5729 5730 5728 5723 5716 5712 5710 5708 5707 5705 5704
5790 5787 5783 5777 5770 5766 5762 5755 5751 5748 5746 5744 5742 5740 5739 5740 5740 5737 5736 5732 5731 5730 5729 5727 5726 5725 5724 5723 5722 5720 5720 5726 5730 5728 5725 5719 5713 5710 5708 5706 5704 5703 5701
5786 5785 5783 5778 5771 5768 5764 5756 5753 5750 5746 5745 5744 5741 5741 5742 5740 5739 5734 5731 5730 5729 5727 5726 5725 5724 5724 5727 5724 5721 5724 5725 5728 5725 5721 5715 5710 5707 5705 5703 5701 5700 5698
5788 5783 5782 5777 5772 5769 5765 5759 5755 5753 5748 5747 5745 5743 5741 5740 5739 5738 5735 5731 5730 5729 5730 5727 5726 5728 5729 5728 5727 5726 5726 5726 5726 5725 5720 5712 5708 5705 5703 5700 5699 5697 5695
5788 5782 5780 5776 5770 5768 5766 5761 5757 5754 5750 5749 5745 5742 5741 5739 5738 5738 5735 5735 5733 5732 5731 5731 5730 5729 5727 5726 5725 5726 5725 5723 5723 5722 5716 5709 5705 5702 5700 5698 5696 5694 5692
5787 5782 5779 5774 5768 5764 5762 5759 5757 5754 5751 5748 5744 5741 5740 5739 5737 5736 5734 5732 5732 5732 5729 5727 5728 5726 5724 5725 5724 5723 5722 5721 5719 5717 5713 5707 5702 5699 5697 5695 5693 5691 5689
5785 5781 5778 5772 5766 5761 5758 5756 5754 5752 5747 5747 5743 5741 5737 5737 5735 5733 5731 5729 5729 5728 5727 5725 5724 5722 5722 5722 5721 5719 5717 5717 5714 5711 5710 5705 5700 5697 5694 5691 5689 5687 5685
5782 5779 5773 5768 5764 5759 5756 5754 5752 5749 5746 5744 5741 5737 5734 5733 5731 5729 5729 5727 5726 5724 5721 5720 5719 5718 5717 5716 5715 5713 5712 5710 5709 5706 5705 5703 5699 5693 5690 5687 5685 5683 5681
5780 5775 5770 5767 5761 5756 5753 5751 5750 5748 5744 5741 5738 5734 5731 5729 5727 5725 5725 5724 5722 5720 5718 5717 5716 5715 5713 5711 5710 5708 5706 5703 5701 5699 5699 5697 5695 5692 5687 5683 5680 5678 5676
5777 5773 5768 5765 5760 5755 5751 5747 5746 5742 5740 5737 5734 5731 5727 5724 5722 5720 5720 5719 5716 5715 5714 5713 5712 5709 5706 5704 5703 5701 5700 5698 5695 5693 5692 5690 5688 5685 5682 5677 5674 5672 5670
5773 5770 5766 5762 5758 5753 5749 5745 5741 5738 5734 5731 5728 5725 5722 5720 5718 5715 5713 5711 5709 5708 5707 5705 5702 5699 5698 5696 5696 5694 5691 5690 5689 5687 5684 5681 5679 5677 5676 5673 5669 5665 5662
5768 5765 5763 5759 5755 5750 5746 5742 5736 5731 5727 5724 5721 5718 5716 5713 5711 5708 5707 5705 5702 5700 5699 5697 5693 5690 5687 5687 5685 5682 5681 5680 5678 5677 5675 5673 5670 5668 5666 5664 5661 5658 5656
5762 5760 5757 5755 5752 5748 5744 5740 5735 5729 5722 5718 5713 5708 5706 5704 5703 5701 5699 5697 5694 5691 5690 5688 5685 5682 5679 5676 5675 5672 5669 5668 5667 5666 5664 5662 5660 5658 5656 5653 5650 5647 5646
5753 5753 5753 5750 5747 5743 5740 5735 5729 5723 5716 5708 5703 5700 5697 5694 5693 5691 5688 5687 5685 5684 5681 5678 5676 5674 5670 5664 5662 5661 5660 5659 5659 5655 5652 5651 5648 5646 5645 5642 5639 5636 5633
5743 5746 5746 5743 5741 5738 5735 5731 5724 5717 5708 5702 5696 5691 5687 5683 5682 5680 5678 5676 5674 5672 5669 5668 5667 5665 5660 5655 5652 5650 5648 5647 5645 5644 5641 5639 5636 5634 5632 5629 5626 5623 5619
5731 5734 5735 5734 5731 5730 5727 5722 5715 5708 5700 5693 5686 5682 5676 5671 5669 5667 5665 5663 5661 5659 5657 5656 5655 5652 5649 5645 5641 5639 5637 5635 5633 5631 5630 5627 5625 5622 5619 5614 5611 5609 5604
5717 5720 5721 5721 5718 5717 5715 5711 5706 5698 5689 5683 5676 5670 5663 5658 5655 5653 5652 5650 5648 5646 5643 5641 5640 5638 5634 5631 5629 5627 5625 5622 5619 5619 5618 5614 5612 5610 5605 5600 5597 5594 5590